This is the latest recevied weather packets stored in our database for station/object KE0TNI-13. If no packets are shown the sender has not sent any weather packets the latest 10 day(s).
| Time | Temp. | Humidity | Pressure | Rain* | Wind** | Luminosity | Snow |
|---|---|---|---|---|---|---|---|
| 1778121275 | -3.33° C | 92% | 1019.5 hPa | 0 mm | - | 0 W/m² | - |
| 1778120972 | -3.33° C | 92% | 1019.5 hPa | 0 mm | - | 0 W/m² | - |
| 1778120669 | -3.33° C | 92% | 1019.1 hPa | 0 mm | - | 0 W/m² | - |
| 1778120365 | -3.33° C | 92% | 1019.2 hPa | 0 mm | - | 0 W/m² | - |
| 1778120060 | -2.78° C | 91% | 1019.2 hPa | 0 mm | - | 0 W/m² | - |
| 1778119758 | -2.78° C | 90% | 1018.8 hPa | 0 mm | - | 1 W/m² | - |
| 1778119454 | -2.22° C | 90% | 1019.1 hPa | 0 mm | - | 2 W/m² | - |
| 1778119152 | -2.22° C | 90% | 1019.1 hPa | 0 mm | - | 3 W/m² | - |
| 1778118850 | -2.22° C | 89% | 1018.8 hPa | 0 mm | - | 4 W/m² | - |
| 1778118547 | -1.67° C | 88% | 1019.2 hPa | 0 mm | - | 6 W/m² | - |
| 1778118243 | -1.67° C | 88% | 1018.7 hPa | 0 mm | - | 8 W/m² | - |
| 1778117939 | -1.67° C | 87% | 1019.1 hPa | 0 mm | - | 10 W/m² | - |
| 1778117636 | -1.11° C | 87% | 1018.7 hPa | 0 mm | - | 12 W/m² | - |
| 1778117334 | -1.11° C | 87% | 1018.8 hPa | 0.51 mm | - | 14 W/m² | - |
| 1778117030 | -1.11° C | 87% | 1018.9 hPa | 0.51 mm | - | 16 W/m² | - |
| 1778116727 | -0.56° C | 86% | 1018.7 hPa | 0 mm | - | 19 W/m² | - |
| 1778116424 | 0° C | 83% | 1018.9 hPa | 0 mm | - | 22 W/m² | - |
| 1778116124 | 0.56° C | 82% | 1018.7 hPa | 0 mm | - | 25 W/m² | - |
| 1778115819 | 1.11° C | 79% | 1018.7 hPa | 0 mm | - | 27 W/m² | - |
| 1778115517 | 2.22° C | 76% | 1018.7 hPa | 0.51 mm | - | 33 W/m² | - |
| 1778115213 | 2.78° C | 73% | 1018.5 hPa | 1.78 mm | - | 44 W/m² | - |
| 1778114910 | 3.89° C | 71% | 1018.5 hPa | 2.29 mm | - | 56 W/m² | - |
| 1778114607 | 5° C | 66% | 1018.7 hPa | 2.29 mm | - | 62 W/m² | - |
| 1778114305 | 6.67° C | 61% | 1018.7 hPa | 3.05 mm | - | 142 W/m² | - |
| 1778114000 | 6.11° C | 63% | 1018.8 hPa | 2.29 mm | - | 184 W/m² | - |
* Rain latest hour (hover to see other rain measurements)
** Current wind speed in m/s (hover to see current wind gust speed)